Time,TemperatureF,DewpointF,PressureIn,WindDirection,WindDirectionDegrees,WindSpeedMPH,WindSpeedGustMPH,Humidity,HourlyPrecipIn,Conditions,Clouds,dailyrainin,SoftwareType,DateUTC
2013-01-06 16:12:00,81.0,72.0,30.07,South,177,4.0,12.0,74,0.00,,,0.00,,2013-01-06 21:12:00,
2013-01-06 16:43:00,80.0,72.0,30.07,ESE,123,6.0,14.0,76,0.00,,,0.00,,2013-01-06 21:43:00,
2013-01-06 16:52:00,79.0,72.0,30.06,ESE,111,3.0,10.0,79,0.00,,,0.00,,2013-01-06 21:52:00,
2013-01-06 17:02:00,79.0,72.0,30.06,SSE,159,3.0,8.0,80,0.00,,,0.00,,2013-01-06 22:02:00,
2013-01-06 17:12:00,79.0,72.0,30.06,SSE,159,3.0,8.0,80,0.00,,,0.00,,2013-01-06 22:12:00,
2013-01-06 17:22:00,78.0,72.0,30.07,SE,128,4.0,9.0,81,0.00,,,0.00,,2013-01-06 22:22:00,
2013-01-06 17:33:00,78.0,72.0,30.07,SSE,166,4.0,10.0,83,0.00,,,0.00,,2013-01-06 22:33:00,
2013-01-06 17:43:00,78.0,72.0,30.07,SSE,166,4.0,10.0,83,0.00,,,0.00,,2013-01-06 22:43:00,
2013-01-06 17:52:00,77.0,72.0,30.07,SE,141,3.0,9.0,86,0.00,,,0.00,,2013-01-06 22:52:00,
2013-01-06 18:02:00,76.0,72.0,30.07,SE,142,3.0,8.0,87,0.00,,,0.00,,2013-01-06 23:02:00,
2013-01-06 18:12:00,76.0,72.0,30.07,SE,142,3.0,8.0,87,0.00,,,0.00,,2013-01-06 23:12:00,
2013-01-06 18:22:00,76.0,72.0,30.08,SSE,148,2.0,8.0,88,0.00,,,0.00,,2013-01-06 23:22:00,
2013-01-06 18:33:00,75.0,72.0,30.08,South,176,2.0,8.0,89,0.00,,,0.00,,2013-01-06 23:33:00,
2013-01-06 18:43:00,75.0,72.0,30.08,South,176,2.0,8.0,89,0.00,,,0.00,,2013-01-06 23:43:00,
2013-01-06 18:52:00,75.0,72.0,30.09,SSE,161,2.0,5.0,89,0.00,,,0.00,,2013-01-06 23:52:00,
2013-01-06 19:03:00,75.0,72.0,30.09,SE,138,0.0,4.0,89,0.00,,,0.00,,2013-01-07 00:03:00,
2013-01-06 19:12:00,75.0,72.0,30.09,SE,138,0.0,4.0,89,0.00,,,0.00,,2013-01-07 00:12:00,
2013-01-06 19:23:00,75.0,72.0,30.09,SSE,161,0.0,3.0,90,0.00,,,0.00,,2013-01-07 00:23:00,
2013-01-06 19:33:00,74.0,71.0,30.09,SSE,162,0.0,2.0,90,0.00,,,0.00,,2013-01-07 00:33:00,
2013-01-06 19:43:00,74.0,71.0,30.09,SSE,162,0.0,2.0,90,0.00,,,0.00,,2013-01-07 00:43:00,
2013-01-06 19:53:00,74.0,71.0,30.10,SSE,162,0.0,1.0,91,0.00,,,0.00,,2013-01-07 00:53:00,
2013-01-06 20:02:00,73.0,71.0,30.10,SSE,162,0.0,1.0,92,0.00,,,0.00,,2013-01-07 01:02:00,
2013-01-06 20:12:00,73.0,71.0,30.10,SSE,162,0.0,1.0,92,0.00,,,0.00,,2013-01-07 01:12:00,
2013-01-06 20:23:00,73.0,71.0,30.10,SSE,162,0.0,2.0,93,0.00,,,0.00,,2013-01-07 01:23:00,
2013-01-06 20:32:00,72.0,70.0,30.11,SSE,162,0.0,2.0,94,0.00,,,0.00,,2013-01-07 01:32:00,
2013-01-06 20:42:00,72.0,70.0,30.11,SSE,162,0.0,2.0,94,0.00,,,0.00,,2013-01-07 01:42:00,
2013-01-06 20:52:00,72.0,70.0,30.11,SSE,163,0.0,3.0,94,0.00,,,0.00,,2013-01-07 01:52:00,
2013-01-06 21:02:00,72.0,70.0,30.11,South,173,0.0,4.0,94,0.00,,,0.00,,2013-01-07 02:02:00,
2013-01-06 21:12:00,72.0,70.0,30.11,South,173,0.0,4.0,94,0.00,,,0.00,,2013-01-07 02:12:00,
2013-01-06 21:23:00,72.0,70.0,30.11,South,173,0.0,4.0,94,0.00,,,0.00,,2013-01-07 02:23:00,
2013-01-06 21:32:00,72.0,70.0,30.11,South,174,0.0,2.0,95,0.00,,,0.00,,2013-01-07 02:32:00,
2013-01-06 21:42:00,72.0,70.0,30.11,South,174,0.0,2.0,95,0.00,,,0.00,,2013-01-07 02:42:00,
2013-01-06 21:53:00,72.0,70.0,30.12,South,173,0.0,4.0,95,0.00,,,0.00,,2013-01-07 02:53:00,
2013-01-06 22:02:00,72.0,70.0,30.12,South,173,0.0,2.0,95,0.00,,,0.00,,2013-01-07 03:02:00,
2013-01-06 22:12:00,72.0,70.0,30.12,South,173,0.0,2.0,95,0.00,,,0.00,,2013-01-07 03:12:00,
2013-01-06 22:23:00,71.0,69.0,30.12,South,173,0.0,1.0,95,0.00,,,0.00,,2013-01-07 03:23:00,
2013-01-06 22:33:00,71.0,69.0,30.12,South,173,0.0,1.0,95,0.00,,,0.00,,2013-01-07 03:33:00,
2013-01-06 22:43:00,71.0,69.0,30.12,South,173,0.0,1.0,95,0.00,,,0.00,,2013-01-07 03:43:00,
2013-01-06 22:52:00,71.0,70.0,30.13,South,173,0.0,1.0,96,0.00,,,0.00,,2013-01-07 03:52:00,
2013-01-06 23:02:00,71.0,70.0,30.12,South,173,0.0,2.0,97,0.00,,,0.00,,2013-01-07 04:02:00,
2013-01-06 23:12:00,71.0,70.0,30.12,South,173,0.0,2.0,97,0.00,,,0.00,,2013-01-07 04:12:00,
2013-01-06 23:22:00,71.0,70.0,30.13,South,177,1.0,2.0,97,0.00,,,0.00,,2013-01-07 04:22:00,
2013-01-06 23:33:00,71.0,70.0,30.13,SW,214,0.0,2.0,97,0.00,,,0.00,,2013-01-07 04:33:00,
2013-01-06 23:42:00,71.0,70.0,30.13,SW,214,0.0,2.0,97,0.00,,,0.00,,2013-01-07 04:42:00,
2013-01-06 23:52:00,71.0,70.0,30.13,SW,215,1.0,2.0,97,0.00,,,0.00,,2013-01-07 04:52:00,